DELTA 1 DEB, 26672

Orbit data source: Space-Track

DELTA 1 DEB, 26672 is space debris in LEO originally from a launch on Thu, 04 Jul 1968 UTC launched from the Air Force Western Test Range (AFWTR). Debris objects in space refer to the collection of defunct objects orbiting the Earth. Examples of debris include non-operational satellites, rocket bodies, and fragments generated from explosions, collisions, or faulty payload assembly.

Loading next visibility...
Identifier
26672, 1968-055F
Orbit
LEO
Country
Flag of USUS
Related business
Manufacturer
Unknown
Mission
Spacecraft
Bus & Motor
Unknown
Mass
Unknown
Launch date (UTC)
1968-07-04 (58 years ago)
Launch vehicle
Unknown
Launch site
Air Force Western Test Range (AFWTR)
Object type
Payload
Rocket body
Debris
Shape & HBR
Unknown shape, 0.1 m
Radar Cross Section
Small (<0.1 m²)

Expand to show TLE details & history
Last TLE update: 1 year ago

TLE from 1 year ago
0 DELTA 1 DEB
1 26672U 68055F   25255.83152456  .00003206  00000-0  29823-2 0  9997
2 26672 120.4741 285.5786 1602629 171.8209 191.2471 11.42113385517400
Epoch: 2025-09-12T19:57Z
TLE epoch observation values (Epoch: 2025-09-12T19:57:23.721Z)
Latitude
-0°
Longitude
-5.84383°
Altitude
3,268.041 km
Speed
5.9 km/s
True Right ascension
19h 02m 18s
True Declination
0° 00' 00"
Sunlit
Object was in daylight at epoch
Visualization orbit readout
Latitude
Unknown
Longitude
Unknown
Altitude
Unknown
Speed
Unknown
Apparent Right ascension
Unknown
Apparent Declination
Unknown
Sunlit
N/A
Visualization observer readout
Local Sidereal Time
15:04:58
Azimuth
Unknown
Elevation
Unknown
Doppler factor
Unknown
Orbital elements
Apogee altitude
3,285.033 km
Perigee altitude
615.556 km
Semi-major axis
8,328.432 km
Eccentricity
0.16026
Inclination
120.4741°
RAAN
285.5786°
Arg. of periapsis
171.8209°
True anomaly
188.25753°
Mean anomaly
191.2471°
Eccentric anomaly
189.69997°
Mean motion
2.85561 °/min
Orbital period
126.07 mins
BSTAR
0.0029823
Loading maneuver chart data...
Computing Atmospheric mass density...
Loading historical data...
Loading historical data...
Loading historical data...
Loading historical data...
Loading historical data...
Loading historical data...
Loading historical data...

Documentation

Showing up to 5 results
|